When you browse on this site, cookies collect data to enhance your experience and personalize the content and advertising you see.
Visit our Privacy Policy to learn more. By continuing to use the site, you agree to this use of cookies and data.
  • In Slovakia
  • List of Countries
  • For 7 days
  • Water Temperature
  • Weather Map
  • Weather Widgets
  • user-avatar
    Login

    Hourly Weather Bansko

    Today, 9 December, Monday

    Time Temperature Precipitation Wind Pressure Humidity
    00:00 +5°C° 0 mm 1 mps 721 mmHg 74%
    01:00 +5°C° 0 mm 1 mps 720 mmHg 73%
    02:00 +5°C° 0 mm 1 mps 720 mmHg 71%
    03:00 +5°C° 0 mm 1 mps 720 mmHg 71%
    04:00 +5°C° 0 mm 1 mps 719 mmHg 71%
    05:00 +5°C° 0 mm 1 mps 719 mmHg 71%
    06:00 +5°C° 0 mm 1 mps 719 mmHg 70%
    07:00 +5°C° 0 mm 1 mps 719 mmHg 70%
    08:00 +5°C° 0 mm 1 mps 719 mmHg 69%
    09:00 +7°C° 0 mm 1 mps 719 mmHg 66%
    10:00 +8°C° 0 mm 1 mps 719 mmHg 63%
    11:00 +10°C° 0 mm 1 mps 719 mmHg 60%
    12:00 +11°C° 0 mm 1 mps 718 mmHg 60%
    13:00 +11°C° 0 mm 1 mps 718 mmHg 61%
    14:00 +12°C° 0 mm 1 mps 717 mmHg 62%
    15:00 +10°C° 0 mm 1 mps 717 mmHg 69%
    16:00 +9°C° 0 mm 1 mps 716 mmHg 75%
    17:00 +7°C° 0 mm 1 mps 716 mmHg 82%
    18:00 +7°C° 0 mm 1 mps 716 mmHg 83%
    19:00 +6°C° 0 mm 1 mps 716 mmHg 83%
    20:00 +6°C° 0 mm 1 mps 716 mmHg 84%
    21:00 +6°C° 0 mm 1 mps 716 mmHg 85%
    22:00 +5°C° 0 mm 1 mps 716 mmHg 86%
    23:00 +5°C° 0 mm 1 mps 716 mmHg 86%

    Tomorrow, 10 December, Tuesday

    Time Temperature Precipitation Wind Pressure Humidity
    00:00 +5°C° 0 mm 1 mps 716 mmHg 87%
    01:00 +5°C° 0 mm 1 mps 716 mmHg 87%
    02:00 +5°C° 0 mm 1 mps 716 mmHg 88%
    03:00 +5°C° 0 mm 1 mps 715 mmHg 88%
    04:00 +5°C° 0 mm 1 mps 715 mmHg 88%
    05:00 +5°C° 0 mm 1 mps 715 mmHg 88%
    06:00 +5°C° 0 mm 1 mps 715 mmHg 87%
    07:00 +5°C° 0 mm 1 mps 715 mmHg 87%
    08:00 +5°C° 0 mm 1 mps 715 mmHg 87%
    09:00 +6°C° 0 mm 1 mps 715 mmHg 83%
    10:00 +8°C° 0 mm 1 mps 716 mmHg 79%
    11:00 +9°C° 0 mm 1 mps 716 mmHg 75%
    12:00 +10°C° 0 mm 1 mps 716 mmHg 73%
    13:00 +11°C° 0 mm 1 mps 715 mmHg 70%
    14:00 +12°C° 0 mm 1 mps 715 mmHg 68%
    15:00 +11°C° 0.3 mm 1 mps 715 mmHg 74%
    16:00 +9°C° 0.3 mm 1 mps 715 mmHg 81%
    17:00 +8°C° 0.3 mm 1 mps 715 mmHg 87%
    18:00 +8°C° 0.7 mm 1 mps 715 mmHg 88%
    19:00 +8°C° 0.7 mm 1 mps 715 mmHg 89%
    20:00 +7°C° 0.7 mm 2 mps 716 mmHg 90%
    21:00 +6°C° 0.1 mm 2 mps 716 mmHg 90%
    22:00 +6°C° 0.1 mm 2 mps 716 mmHg 90%
    23:00 +6°C° 0.1 mm 2 mps 716 mmHg 90%

    Day after tomorrow, 11 December, Wednesday

    Time Temperature Precipitation Wind Pressure Humidity
    00:00 +6°C° 0.2 mm 2 mps 716 mmHg 90%
    01:00 +6°C° 0.2 mm 2 mps 716 mmHg 91%
    02:00 +5°C° 0.2 mm 2 mps 717 mmHg 92%
    03:00 +5°C° 0.2 mm 2 mps 716 mmHg 92%
    04:00 +5°C° 0.2 mm 2 mps 716 mmHg 92%
    05:00 +5°C° 0.2 mm 2 mps 716 mmHg 92%
    06:00 +5°C° 0 mm 2 mps 716 mmHg 93%
    07:00 +4°C° 0 mm 2 mps 716 mmHg 93%
    08:00 +4°C° 0 mm 2 mps 717 mmHg 94%
    09:00 +5°C° 0.4 mm 2 mps 717 mmHg 94%
    10:00 +5°C° 0.4 mm 2 mps 717 mmHg 94%
    11:00 +5°C° 0.4 mm 2 mps 717 mmHg 93%
    12:00 +6°C° 0.1 mm 2 mps 717 mmHg 93%
    13:00 +6°C° 0.1 mm 2 mps 717 mmHg 92%
    14:00 +6°C° 0.1 mm 2 mps 717 mmHg 91%
    15:00 +6°C° 0.1 mm 2 mps 716 mmHg 92%
    16:00 +6°C° 0.1 mm 2 mps 716 mmHg 93%
    17:00 +5°C° 0.1 mm 2 mps 716 mmHg 94%
    18:00 +6°C° 0 mm 1 mps 716 mmHg 94%
    19:00 +6°C° 0 mm 1 mps 716 mmHg 94%
    20:00 +6°C° 0 mm 1 mps 716 mmHg 94%
    21:00 +6°C° 0 mm 1 mps 716 mmHg 94%
    22:00 +6°C° 0 mm 1 mps 716 mmHg 94%
    23:00 +5°C° 0 mm 1 mps 716 mmHg 95%

    12 December, Thursday

    Time Temperature Precipitation Wind Pressure Humidity
    00:00 +5°C° 0 mm 1 mps 715 mmHg 94%
    01:00 +5°C° 0 mm 1 mps 715 mmHg 94%
    02:00 +5°C° 0 mm 1 mps 715 mmHg 93%
    03:00 +5°C° 0 mm 1 mps 715 mmHg 93%
    04:00 +5°C° 0 mm 1 mps 714 mmHg 93%
    05:00 +4°C° 0 mm 1 mps 714 mmHg 92%
    06:00 +4°C° 0 mm 1 mps 714 mmHg 92%
    07:00 +4°C° 0 mm 1 mps 714 mmHg 91%
    08:00 +4°C° 0 mm 1 mps 714 mmHg 91%
    09:00 +6°C° 0 mm 1 mps 714 mmHg 87%
    10:00 +6°C° 0 mm 0 mps 714 mmHg 83%
    11:00 +8°C° 0 mm 0 mps 714 mmHg 78%
    12:00 +8°C° 0 mm 0 mps 714 mmHg 77%
    13:00 +10°C° 0 mm 1 mps 714 mmHg 76%
    14:00 +10°C° 0 mm 1 mps 713 mmHg 75%
    15:00 +8°C° 0 mm 0 mps 713 mmHg 79%
    16:00 +7°C° 0 mm 0 mps 713 mmHg 84%
    17:00 +6°C° 0 mm 0 mps 713 mmHg 89%
    18:00 +6°C° 0 mm 0 mps 713 mmHg 89%
    19:00 +6°C° 0 mm 0 mps 713 mmHg 89%
    20:00 +5°C° 0 mm 0 mps 713 mmHg 90%
    21:00 +5°C° 0 mm 0 mps 713 mmHg 90%
    22:00 +5°C° 0 mm 0 mps 713 mmHg 90%
    23:00 +5°C° 0 mm 0 mps 713 mmHg 91%

    13 December, Friday

    Time Temperature Precipitation Wind Pressure Humidity
    00:00 +5°C° 0 mm 0 mps 713 mmHg 91%
    01:00 +5°C° 0 mm 0 mps 713 mmHg 91%
    02:00 +5°C° 0 mm 0 mps 713 mmHg 91%
    03:00 +5°C° 0 mm 0 mps 713 mmHg 90%
    04:00 +5°C° 0 mm 0 mps 712 mmHg 90%
    05:00 +5°C° 0 mm 0 mps 712 mmHg 90%
    06:00 +5°C° 0 mm 0 mps 712 mmHg 90%
    07:00 +5°C° 0 mm 0 mps 713 mmHg 90%
    08:00 +5°C° 0 mm 0 mps 713 mmHg 90%
    09:00 +6°C° 0 mm 0 mps 713 mmHg 87%
    10:00 +8°C° 0 mm 1 mps 713 mmHg 85%
    11:00 +9°C° 0 mm 1 mps 713 mmHg 82%
    12:00 +10°C° 0 mm 1 mps 712 mmHg 78%
    13:00 +10°C° 0 mm 1 mps 711 mmHg 75%
    14:00 +11°C° 0 mm 1 mps 711 mmHg 71%
    15:00 +10°C° 0 mm 1 mps 711 mmHg 76%
    16:00 +7°C° 0 mm 2 mps 710 mmHg 81%
    17:00 +6°C° 0 mm 2 mps 710 mmHg 86%
    18:00 +6°C° 0 mm 2 mps 710 mmHg 86%
    19:00 +6°C° 0 mm 2 mps 710 mmHg 86%
    20:00 +6°C° 0 mm 2 mps 710 mmHg 86%
    21:00 +5°C° 0 mm 2 mps 710 mmHg 86%
    22:00 +5°C° 0 mm 2 mps 709 mmHg 86%
    23:00 +5°C° 0 mm 2 mps 709 mmHg 86%

    14 December, Saturday

    Time Temperature Precipitation Wind Pressure Humidity
    00:00 +5°C° 0 mm 2 mps 709 mmHg 87%
    01:00 +5°C° 0 mm 2 mps 708 mmHg 87%
    02:00 +5°C° 0 mm 2 mps 708 mmHg 88%
    03:00 +4°C° 0.1 mm 3 mps 707 mmHg 89%
    04:00 +4°C° 0.1 mm 3 mps 707 mmHg 90%
    05:00 +5°C° 0.1 mm 3 mps 706 mmHg 91%
    06:00 +5°C° 0.3 mm 3 mps 706 mmHg 91%
    07:00 +6°C° 0.3 mm 2 mps 706 mmHg 92%
    08:00 +6°C° 0.3 mm 2 mps 706 mmHg 93%
    09:00 +6°C° 0.7 mm 2 mps 707 mmHg 94%
    10:00 +7°C° 0.7 mm 1 mps 707 mmHg 95%
    11:00 +8°C° 0.7 mm 1 mps 708 mmHg 96%
    12:00 +8°C° 0.4 mm 1 mps 708 mmHg 94%
    13:00 +7°C° 0.4 mm 2 mps 709 mmHg 93%
    14:00 +7°C° 0.4 mm 2 mps 709 mmHg 91%
    15:00 +6°C° 0 mm 2 mps 710 mmHg 90%
    16:00 +6°C° 0 mm 2 mps 710 mmHg 89%
    17:00 +5°C° 0 mm 2 mps 711 mmHg 88%
    18:00 +5°C° 0 mm 2 mps 712 mmHg 83%
    19:00 +5°C° 0 mm 1 mps 712 mmHg 79%
    20:00 +5°C° 0 mm 1 mps 713 mmHg 75%
    21:00 +5°C° 0 mm 1 mps 714 mmHg 74%
    22:00 +5°C° 0 mm 1 mps 715 mmHg 73%
    23:00 +5°C° 0 mm 1 mps 715 mmHg 72%
    Show more